Location: ?????
(42.2640°N, 43.4211°E)
Time: 02:02:48
(UTC+00:00)

IDEFIX/ARIANE 42P - Pass Details

Date: 07 August 2020
Orbit: 786 x 802 km, 98.4° (Epoch: 23 September)

Event Time Altitude Azimuth Distance (km) Brightness Sun altitude
Rises 00:29:28 0° 11° (N) 3,289 6.6 -15.9°
Reaches altitude 10° 00:31:48 10° 10° (N) 2,357 5.8 -15.5°
Maximum altitude 00:37:00 77° 285° (WNW) 814 2.5 -14.8°
Enters shadow 00:41:06 17° 202° (SSW) 1,932 4.1 -14.2°
